When you browse on this site, cookies collect data to enhance your experience and personalize the content and advertising you see.
Visit our Privacy Policy to learn more. By continuing to use the site, you agree to this use of cookies and data.
EN

Hourly Weather Kalat

Today, 10 July, Friday

Time Temperature Precipitation Wind Pressure Humidity
00:00 +7°C° 0 mm 2 mps 477 mmHg 73%
01:00 +6°C° 0 mm 2 mps 476 mmHg 75%
02:00 +6°C° 0 mm 2 mps 476 mmHg 77%
03:00 +6°C° 0 mm 2 mps 475 mmHg 78%
04:00 +5°C° 0 mm 2 mps 475 mmHg 79%
05:00 +4°C° 0 mm 3 mps 475 mmHg 78%
06:00 +4°C° 0 mm 3 mps 475 mmHg 74%
07:00 +6°C° 0 mm 2 mps 476 mmHg 70%
08:00 +6°C° 0 mm 2 mps 476 mmHg 65%
09:00 +7°C° 0 mm 2 mps 477 mmHg 59%
10:00 +8°C° 0 mm 2 mps 478 mmHg 53%
11:00 +9°C° 0 mm 2 mps 478 mmHg 44%
12:00 +10°C° 0 mm 3 mps 479 mmHg 42%
13:00 +11°C° 0 mm 3 mps 479 mmHg 40%
14:00 +12°C° 0 mm 3 mps 479 mmHg 37%
15:00 +12°C° 0 mm 3 mps 479 mmHg 39%
16:00 +11°C° 0 mm 3 mps 479 mmHg 40%
17:00 +11°C° 0 mm 4 mps 479 mmHg 42%
18:00 +11°C° 0 mm 4 mps 478 mmHg 45%
19:00 +10°C° 0 mm 4 mps 478 mmHg 48%
20:00 +9°C° 0 mm 3 mps 478 mmHg 51%
21:00 +8°C° 0 mm 3 mps 478 mmHg 53%
22:00 +8°C° 0 mm 3 mps 478 mmHg 54%
23:00 +7°C° 0 mm 3 mps 477 mmHg 56%

Tomorrow, 11 July, Saturday

Time Temperature Precipitation Wind Pressure Humidity
00:00 +7°C° 0 mm 3 mps 477 mmHg 58%
01:00 +5°C° 0 mm 3 mps 476 mmHg 59%
02:00 +5°C° 0 mm 2 mps 476 mmHg 61%
03:00 +5°C° 0 mm 2 mps 475 mmHg 63%
04:00 +5°C° 0 mm 2 mps 475 mmHg 65%
05:00 +4°C° 0 mm 2 mps 475 mmHg 66%
06:00 +5°C° 0 mm 2 mps 475 mmHg 63%
07:00 +5°C° 0 mm 2 mps 475 mmHg 59%
08:00 +6°C° 0 mm 2 mps 476 mmHg 56%
09:00 +7°C° 0 mm 2 mps 476 mmHg 52%
10:00 +8°C° 0 mm 2 mps 477 mmHg 48%
11:00 +9°C° 0 mm 2 mps 477 mmHg 43%
12:00 +10°C° 0 mm 2 mps 478 mmHg 43%
13:00 +11°C° 0 mm 3 mps 478 mmHg 42%
14:00 +11°C° 0 mm 3 mps 478 mmHg 41%
15:00 +11°C° 0.1 mm 3 mps 478 mmHg 46%
16:00 +10°C° 0.1 mm 3 mps 477 mmHg 51%
17:00 +10°C° 0.1 mm 3 mps 477 mmHg 56%
18:00 +9°C° 0.3 mm 2 mps 476 mmHg 63%
19:00 +8°C° 0.3 mm 2 mps 476 mmHg 70%
20:00 +7°C° 0.3 mm 2 mps 475 mmHg 76%
21:00 +7°C° 0.1 mm 2 mps 476 mmHg 77%
22:00 +7°C° 0.1 mm 2 mps 476 mmHg 77%
23:00 +7°C° 0.1 mm 1 mps 476 mmHg 78%

Day after tomorrow, 12 July, Sunday

Time Temperature Precipitation Wind Pressure Humidity
00:00 +7°C° 0 mm 1 mps 476 mmHg 78%
01:00 +7°C° 0 mm 1 mps 475 mmHg 78%
02:00 +7°C° 0 mm 1 mps 475 mmHg 79%
03:00 +7°C° 0.5 mm 1 mps 475 mmHg 81%
04:00 +6°C° 0.5 mm 1 mps 474 mmHg 84%
05:00 +6°C° 0.5 mm 1 mps 474 mmHg 86%
06:00 +6°C° 0.6 mm 1 mps 474 mmHg 85%
07:00 +6°C° 0.6 mm 1 mps 474 mmHg 84%
08:00 +5°C° 0.6 mm 2 mps 475 mmHg 83%
09:00 +6°C° 0.5 mm 2 mps 476 mmHg 78%
10:00 +7°C° 0.5 mm 2 mps 476 mmHg 72%
11:00 +8°C° 0.5 mm 2 mps 477 mmHg 67%
12:00 +9°C° 0.5 mm 2 mps 477 mmHg 67%
13:00 +9°C° 0.5 mm 2 mps 477 mmHg 67%
14:00 +9°C° 0.5 mm 2 mps 477 mmHg 67%
15:00 +9°C° 0.2 mm 2 mps 477 mmHg 65%
16:00 +10°C° 0.2 mm 3 mps 477 mmHg 62%
17:00 +10°C° 0.2 mm 3 mps 477 mmHg 60%
18:00 +9°C° 0.1 mm 2 mps 477 mmHg 64%
19:00 +8°C° 0.1 mm 2 mps 476 mmHg 68%
20:00 +7°C° 0.1 mm 2 mps 476 mmHg 73%
21:00 +7°C° 0 mm 2 mps 476 mmHg 73%
22:00 +8°C° 0 mm 1 mps 476 mmHg 73%
23:00 +7°C° 0 mm 1 mps 476 mmHg 73%

13 July, Monday

Time Temperature Precipitation Wind Pressure Humidity
00:00 +6°C° 0 mm 0 mps 475 mmHg 75%
01:00 +6°C° 0 mm 0 mps 475 mmHg 76%
02:00 +6°C° 0 mm 0 mps 475 mmHg 78%
03:00 +6°C° 0 mm 0 mps 475 mmHg 78%
04:00 +6°C° 0 mm 1 mps 474 mmHg 77%
05:00 +6°C° 0 mm 1 mps 474 mmHg 77%
06:00 +8°C° 0 mm 1 mps 475 mmHg 70%
07:00 +9°C° 0 mm 1 mps 476 mmHg 63%
08:00 +10°C° 0 mm 1 mps 477 mmHg 57%
09:00 +11°C° 0 mm 1 mps 478 mmHg 51%
10:00 +12°C° 0 mm 1 mps 479 mmHg 45%
11:00 +14°C° 0 mm 1 mps 480 mmHg 39%
12:00 +14°C° 0.3 mm 2 mps 479 mmHg 42%
13:00 +13°C° 0.3 mm 2 mps 479 mmHg 44%
14:00 +12°C° 0.3 mm 3 mps 479 mmHg 47%
15:00 +13°C° 0.7 mm 2 mps 479 mmHg 49%
16:00 +13°C° 0.7 mm 2 mps 478 mmHg 51%
17:00 +12°C° 0.7 mm 2 mps 478 mmHg 54%
18:00 +12°C° 0.6 mm 2 mps 478 mmHg 59%
19:00 +10°C° 0.6 mm 2 mps 478 mmHg 65%
20:00 +9°C° 0.6 mm 2 mps 478 mmHg 70%
21:00 +8°C° 1 mm 2 mps 477 mmHg 72%
22:00 +9°C° 1 mm 1 mps 477 mmHg 73%
23:00 +8°C° 1 mm 1 mps 477 mmHg 75%

14 July, Tuesday

Time Temperature Precipitation Wind Pressure Humidity
00:00 +8°C° 0 mm 1 mps 477 mmHg 74%
01:00 +8°C° 0 mm 1 mps 477 mmHg 74%
02:00 +8°C° 0 mm 1 mps 477 mmHg 74%
03:00 +8°C° 0 mm 1 mps 477 mmHg 73%
04:00 +8°C° 0 mm 1 mps 477 mmHg 72%
05:00 +8°C° 0 mm 1 mps 477 mmHg 72%
06:00 +9°C° 0 mm 1 mps 478 mmHg 68%
07:00 +10°C° 0 mm 1 mps 478 mmHg 65%
08:00 +10°C° 0 mm 1 mps 479 mmHg 62%
09:00 +12°C° 0.1 mm 1 mps 480 mmHg 56%
10:00 +13°C° 0.1 mm 1 mps 481 mmHg 51%
11:00 +14°C° 0.1 mm 1 mps 481 mmHg 46%
12:00 +14°C° 0.4 mm 2 mps 481 mmHg 48%
13:00 +14°C° 0.4 mm 2 mps 481 mmHg 50%
14:00 +13°C° 0.4 mm 3 mps 480 mmHg 52%
15:00 +12°C° 0.7 mm 3 mps 480 mmHg 56%
16:00 +12°C° 0.7 mm 3 mps 480 mmHg 59%
17:00 +11°C° 0.7 mm 3 mps 479 mmHg 63%
18:00 +12°C° 0.5 mm 2 mps 479 mmHg 67%
19:00 +10°C° 0.5 mm 2 mps 479 mmHg 71%
20:00 +10°C° 0.5 mm 1 mps 479 mmHg 76%
21:00 +10°C° 0.1 mm 1 mps 479 mmHg 75%
22:00 +10°C° 0.1 mm 1 mps 479 mmHg 74%
23:00 +9°C° 0.1 mm 0 mps 479 mmHg 73%

15 July, Wednesday

Time Temperature Precipitation Wind Pressure Humidity
00:00 +9°C° 0 mm 0 mps 479 mmHg 74%
01:00 +8°C° 0 mm 0 mps 478 mmHg 74%
02:00 +8°C° 0 mm 0 mps 478 mmHg 75%
03:00 +8°C° 0 mm 0 mps 478 mmHg 75%
04:00 +8°C° 0 mm 0 mps 478 mmHg 76%
05:00 +7°C° 0 mm 0 mps 478 mmHg 76%
06:00 +8°C° 0 mm 0 mps 478 mmHg 69%
07:00 +10°C° 0 mm 1 mps 479 mmHg 62%
08:00 +11°C° 0 mm 1 mps 480 mmHg 56%
09:00 +12°C° 0 mm 1 mps 481 mmHg 51%
10:00 +13°C° 0 mm 1 mps 481 mmHg 47%
11:00 +14°C° 0 mm 1 mps 482 mmHg 43%
12:00 +15°C° 0.2 mm 2 mps 482 mmHg 45%
13:00 +15°C° 0.2 mm 2 mps 482 mmHg 46%
14:00 +14°C° 0.2 mm 3 mps 481 mmHg 48%
15:00 +13°C° 0.8 mm 3 mps 481 mmHg 54%
16:00 +13°C° 0.8 mm 2 mps 480 mmHg 60%
17:00 +12°C° 0.8 mm 2 mps 479 mmHg 65%
18:00 +12°C° 0.3 mm 2 mps 479 mmHg 65%
19:00 +12°C° 0.3 mm 2 mps 479 mmHg 65%
20:00 +12°C° 0.3 mm 2 mps 479 mmHg 65%
21:00 +12°C° 0.1 mm 2 mps 479 mmHg 66%
22:00 +10°C° 0.1 mm 2 mps 480 mmHg 66%
23:00 +10°C° 0.1 mm 2 mps 480 mmHg 67%
Show more